Location: Emory University Observatory
(33.7903°N, 84.3267°W)
Time: 09:02:53
(UTC-05:00)

N. Korean satellite - Pass Details

Date: 07 October 2017
Orbit: 461 x 513 km, 97.2° (Epoch: 14 December)

Event Time Altitude Azimuth Distance (km) Brightness Sun altitude
Rises 20:33:56 0° 200° (SSW) 2,582 10.5 -17.6°
Maximum altitude 20:39:05 18° 265° (W) 1,261 9.6 -18.7°
Drops below altitude 10° 20:41:38 10° 310° (NW) 1,681 10.1 -19.2°
Sets 20:44:12 0° 329° (NNW) 2,555 10.8 -19.7°
